iso_date,epoch_date,Year,Hour,Min,DOY,POS_DOY,Lat,Lon,BP,Ts,Ta,has_bp,has_ts,has_ta,BuoyID,Buoy_Type,Buoy_Owner,Logistics,Hemisphere
2018-08-10T20:02:24Z,1533931344,2018,20,3,222.835,222.835,51.667,-45.342,-999.00,-5.0,-999.0,no,yes,no,300234063252990,BD2GHI,AOML,UNKNOWN,North
2018-08-10T21:00:00Z,1533934800,2018,21,0,222.875,222.875,51.666,-45.334,-999.00,-2.13,-999.0,no,yes,no,300234063252990,BD2GHI,AOML,UNKNOWN,North
2018-08-10T22:00:28Z,1533938429,2018,22,0,222.917,222.917,51.664,-45.326,-999.00,-2.67,-999.0,no,yes,no,300234063252990,BD2GHI,AOML,UNKNOWN,North
2018-08-10T22:59:31Z,1533941971,2018,23,0,222.958,222.958,51.662,-45.318,-999.00,-2.65,-999.0,no,yes,no,300234063252990,BD2GHI,AOML,UNKNOWN,North
2018-08-11T00:00:00Z,1533945600,2018,0,0,223.0,223.0,51.659,-45.307,-999.00,-2.68,-999.0,no,yes,no,300234063252990,BD2GHI,AOML,UNKNOWN,North
2018-08-11T03:00:00Z,1533956400,2018,3,0,223.125,223.125,51.65,-45.275,-999.00,-2.74,-999.0,no,yes,no,300234063252990,BD2GHI,AOML,UNKNOWN,North
2018-08-11T04:00:28Z,1533960029,2018,4,0,223.167,223.167,51.649,-45.265,-999.00,-2.74,-999.0,no,yes,no,300234063252990,BD2GHI,AOML,UNKNOWN,North
2018-08-11T04:59:31Z,1533963571,2018,5,0,223.208,223.208,51.648,-45.256,-999.00,-2.88,-999.0,no,yes,no,300234063252990,BD2GHI,AOML,UNKNOWN,North
2018-08-11T06:00:00Z,1533967200,2018,6,0,223.25,223.25,51.645,-45.248,-999.00,-2.57,-999.0,no,yes,no,300234063252990,BD2GHI,AOML,UNKNOWN,North
2018-08-11T07:00:28Z,1533970829,2018,7,0,223.292,223.292,51.643,-45.238,-999.00,-2.55,-999.0,no,yes,no,300234063252990,BD2GHI,AOML,UNKNOWN,North
2018-08-11T07:59:31Z,1533974371,2018,8,0,223.333,223.333,51.639,-45.226,-999.00,-2.83,-999.0,no,yes,no,300234063252990,BD2GHI,AOML,UNKNOWN,North
2018-08-11T09:01:26Z,1533978086,2018,9,1,223.376,223.376,51.635,-45.214,-999.00,-2.5,-999.0,no,yes,no,300234063252990,BD2GHI,AOML,UNKNOWN,North
2018-08-11T10:03:21Z,1533981802,2018,10,4,223.419,223.419,51.632,-45.203,-999.00,-2.74,-999.0,no,yes,no,300234063252990,BD2GHI,AOML,UNKNOWN,North
2018-08-11T12:00:00Z,1533988800,2018,12,0,223.5,223.5,51.617,-45.182,-999.00,-3.46,-999.0,no,yes,no,300234063252990,BD2GHI,AOML,UNKNOWN,North
2018-08-11T13:00:28Z,1533992429,2018,13,0,223.542,223.542,51.607,-45.173,-999.00,-3.72,-999.0,no,yes,no,300234063252990,BD2GHI,AOML,UNKNOWN,North
2018-08-11T13:59:31Z,1533995971,2018,14,0,223.583,223.583,51.603,-45.169,-999.00,-3.96,-999.0,no,yes,no,300234063252990,BD2GHI,AOML,UNKNOWN,North
2018-08-11T15:00:00Z,1533999600,2018,15,0,223.625,223.625,51.599,-45.166,-999.00,-4.29,-999.0,no,yes,no,300234063252990,BD2GHI,AOML,UNKNOWN,North
2018-08-11T16:00:28Z,1534003229,2018,16,0,223.667,223.667,51.596,-45.164,-999.00,-4.44,-999.0,no,yes,no,300234063252990,BD2GHI,AOML,UNKNOWN,North
2018-08-11T18:00:00Z,1534010400,2018,18,0,223.75,223.75,51.596,-45.158,-999.00,-4.54,-999.0,no,yes,no,300234063252990,BD2GHI,AOML,UNKNOWN,North
2018-08-11T19:00:28Z,1534014029,2018,19,0,223.792,223.792,51.597,-45.152,-999.00,-4.5,-999.0,no,yes,no,300234063252990,BD2GHI,AOML,UNKNOWN,North
2018-08-11T19:59:31Z,1534017571,2018,20,0,223.833,223.833,51.595,-45.14,-999.00,-4.24,-999.0,no,yes,no,300234063252990,BD2GHI,AOML,UNKNOWN,North
2018-08-11T21:01:26Z,1534021286,2018,21,1,223.876,223.876,51.593,-45.125,-999.00,-4.04,-999.0,no,yes,no,300234063252990,BD2GHI,AOML,UNKNOWN,North
2018-08-11T22:03:21Z,1534025002,2018,22,4,223.919,223.919,51.589,-45.115,-999.00,-4.21,-999.0,no,yes,no,300234063252990,BD2GHI,AOML,UNKNOWN,North
2018-08-11T22:59:31Z,1534028371,2018,23,0,223.958,223.958,51.583,-45.104,-999.00,-4.86,-999.0,no,yes,no,300234063252990,BD2GHI,AOML,UNKNOWN,North
2018-08-12T00:00:00Z,1534032000,2018,0,0,224.0,224.0,51.575,-45.092,-999.00,-5.0,-999.0,no,yes,no,300234063252990,BD2GHI,AOML,UNKNOWN,North
2018-08-12T01:03:21Z,1534035802,2018,1,4,224.044,224.044,51.568,-45.082,-999.00,-5.0,-999.0,no,yes,no,300234063252990,BD2GHI,AOML,UNKNOWN,North
2018-08-12T01:59:31Z,1534039171,2018,2,0,224.083,224.083,51.561,-45.075,-999.00,-5.0,-999.0,no,yes,no,300234063252990,BD2GHI,AOML,UNKNOWN,North
2018-08-12T03:00:00Z,1534042800,2018,3,0,224.125,224.125,51.553,-45.069,-999.00,-5.0,-999.0,no,yes,no,300234063252990,BD2GHI,AOML,UNKNOWN,North
2018-08-12T04:00:28Z,1534046429,2018,4,0,224.167,224.167,51.546,-45.062,-999.00,-5.0,-999.0,no,yes,no,300234063252990,BD2GHI,AOML,UNKNOWN,North
2018-08-12T05:00:57Z,1534050058,2018,5,1,224.209,224.209,51.538,-45.058,-999.00,-5.0,-999.0,no,yes,no,300234063252990,BD2GHI,AOML,UNKNOWN,North
2018-08-12T06:00:00Z,1534053600,2018,6,0,224.25,224.25,-90.0,-180.0,-999.00,-5.0,-999.0,no,yes,no,300234063252990,BD2GHI,AOML,UNKNOWN,North
2018-08-12T07:00:28Z,1534057229,2018,7,1,224.292,224.292,51.532,-45.055,-999.00,-5.0,-999.0,no,yes,no,300234063252990,BD2GHI,AOML,UNKNOWN,North
2018-08-12T07:59:31Z,1534060771,2018,8,0,224.333,224.333,51.53,-45.049,-999.00,-5.0,-999.0,no,yes,no,300234063252990,BD2GHI,AOML,UNKNOWN,North
2018-08-12T09:00:00Z,1534064400,2018,9,0,224.375,224.375,51.527,-45.042,-999.00,-5.0,-999.0,no,yes,no,300234063252990,BD2GHI,AOML,UNKNOWN,North
2018-08-12T10:00:28Z,1534068029,2018,10,0,224.417,224.417,-90.0,-180.0,-999.00,-5.0,-999.0,no,yes,no,300234063252990,BD2GHI,AOML,UNKNOWN,North
2018-08-12T11:03:50Z,1534071830,2018,11,4,224.461,224.461,51.517,-45.02,-999.00,-5.0,-999.0,no,yes,no,300234063252990,BD2GHI,AOML,UNKNOWN,North
2018-08-12T12:00:00Z,1534075200,2018,12,0,224.5,224.5,51.512,-45.006,-999.00,-5.0,-999.0,no,yes,no,300234063252990,BD2GHI,AOML,UNKNOWN,North
2018-08-12T13:00:28Z,1534078829,2018,13,0,224.542,224.542,51.505,-44.991,-999.00,-5.0,-999.0,no,yes,no,300234063252990,BD2GHI,AOML,UNKNOWN,North
2018-08-12T14:00:57Z,1534082458,2018,14,1,224.584,224.584,51.498,-44.976,-999.00,-5.0,-999.0,no,yes,no,300234063252990,BD2GHI,AOML,UNKNOWN,North
2018-08-12T16:00:28Z,1534089629,2018,16,0,224.667,224.667,51.482,-44.948,-999.00,-5.0,-999.0,no,yes,no,300234063252990,BD2GHI,AOML,UNKNOWN,North
2018-08-12T17:02:24Z,1534093344,2018,17,3,224.71,224.71,51.474,-44.936,-999.00,-5.0,-999.0,no,yes,no,300234063252990,BD2GHI,AOML,UNKNOWN,North
2018-08-12T18:01:26Z,1534096886,2018,18,1,224.751,224.751,51.468,-44.927,-999.00,-5.0,-999.0,no,yes,no,300234063252990,BD2GHI,AOML,UNKNOWN,North
2018-08-12T19:00:28Z,1534100429,2018,19,0,224.792,224.792,51.465,-44.921,-999.00,-5.0,-999.0,no,yes,no,300234063252990,BD2GHI,AOML,UNKNOWN,North
2018-08-12T19:59:31Z,1534103971,2018,20,0,224.833,224.833,51.463,-44.915,-999.00,-5.0,-999.0,no,yes,no,300234063252990,BD2GHI,AOML,UNKNOWN,North
2018-08-12T22:00:28Z,1534111229,2018,22,0,224.917,224.917,51.461,-44.901,-999.00,-5.0,-999.0,no,yes,no,300234063252990,BD2GHI,AOML,UNKNOWN,North
2018-08-12T22:59:31Z,1534114771,2018,23,0,224.958,224.958,51.463,-44.895,-999.00,-5.0,-999.0,no,yes,no,300234063252990,BD2GHI,AOML,UNKNOWN,North
2018-08-13T00:00:00Z,1534118400,2018,0,0,225.0,225.0,51.466,-44.884,-999.00,-5.0,-999.0,no,yes,no,300234063252990,BD2GHI,AOML,UNKNOWN,North
2018-08-13T01:00:28Z,1534122029,2018,1,0,225.042,225.042,51.467,-44.87,-999.00,-5.0,-999.0,no,yes,no,300234063252990,BD2GHI,AOML,UNKNOWN,North
2018-08-13T03:00:00Z,1534129200,2018,3,0,225.125,225.125,51.472,-44.842,-999.00,-5.0,-999.0,no,yes,no,300234063252990,BD2GHI,AOML,UNKNOWN,North
2018-08-13T04:00:28Z,1534132829,2018,4,0,225.167,225.167,51.473,-44.827,-999.00,-5.0,-999.0,no,yes,no,300234063252990,BD2GHI,AOML,UNKNOWN,North
2018-08-13T04:59:31Z,1534136371,2018,5,0,225.208,225.208,51.475,-44.813,-999.00,-5.0,-999.0,no,yes,no,300234063252990,BD2GHI,AOML,UNKNOWN,North
2018-08-13T06:00:00Z,1534140000,2018,6,0,225.25,225.25,51.476,-44.802,-999.00,-5.0,-999.0,no,yes,no,300234063252990,BD2GHI,AOML,UNKNOWN,North
2018-08-13T07:00:28Z,1534143629,2018,7,0,225.292,225.292,51.474,-44.793,-999.00,-5.0,-999.0,no,yes,no,300234063252990,BD2GHI,AOML,UNKNOWN,North
2018-08-13T07:59:31Z,1534147171,2018,8,0,225.333,225.333,51.474,-44.789,-999.00,-5.0,-999.0,no,yes,no,300234063252990,BD2GHI,AOML,UNKNOWN,North
2018-08-13T10:59:31Z,1534157971,2018,11,0,225.458,225.458,51.479,-44.792,-999.00,-5.0,-999.0,no,yes,no,300234063252990,BD2GHI,AOML,UNKNOWN,North
2018-08-13T12:00:00Z,1534161600,2018,12,0,225.5,225.5,51.483,-44.792,-999.00,-5.0,-999.0,no,yes,no,300234063252990,BD2GHI,AOML,UNKNOWN,North
2018-08-13T13:01:55Z,1534165315,2018,13,2,225.543,225.543,51.488,-44.79,-999.00,-5.0,-999.0,no,yes,no,300234063252990,BD2GHI,AOML,UNKNOWN,North
2018-08-13T14:00:57Z,1534168858,2018,14,1,225.584,225.584,51.495,-44.786,-999.00,-5.0,-999.0,no,yes,no,300234063252990,BD2GHI,AOML,UNKNOWN,North
2018-08-13T16:00:28Z,1534176029,2018,16,0,225.667,225.667,51.51,-44.77,-999.00,-5.0,-999.0,no,yes,no,300234063252990,BD2GHI,AOML,UNKNOWN,North
2018-08-13T18:00:00Z,1534183200,2018,18,0,225.75,225.75,-90.0,-180.0,-999.00,-5.0,-999.0,no,yes,no,300234063252990,BD2GHI,AOML,UNKNOWN,North
2018-08-13T19:00:28Z,1534186829,2018,19,0,225.792,225.792,51.527,-44.739,-999.00,-5.0,-999.0,no,yes,no,300234063252990,BD2GHI,AOML,UNKNOWN,North
2018-08-13T19:59:31Z,1534190371,2018,20,0,225.833,225.833,51.529,-44.728,-999.00,-5.0,-999.0,no,yes,no,300234063252990,BD2GHI,AOML,UNKNOWN,North
2018-08-13T21:02:52Z,1534194173,2018,21,3,225.877,225.877,51.53,-44.721,-999.00,-5.0,-999.0,no,yes,no,300234063252990,BD2GHI,AOML,UNKNOWN,North
2018-08-13T22:00:28Z,1534197629,2018,22,1,225.917,225.917,51.531,-44.718,-999.00,-5.0,-999.0,no,yes,no,300234063252990,BD2GHI,AOML,UNKNOWN,North
2018-08-13T22:59:31Z,1534201171,2018,23,0,225.958,225.958,51.532,-44.713,-999.00,-5.0,-999.0,no,yes,no,300234063252990,BD2GHI,AOML,UNKNOWN,North
2018-08-14T01:00:28Z,1534208429,2018,1,0,226.042,226.042,51.532,-44.701,-999.00,-5.0,-999.0,no,yes,no,300234063252990,BD2GHI,AOML,UNKNOWN,North
2018-08-14T04:03:21Z,1534219402,2018,4,3,226.169,226.169,51.53,-44.69,-999.00,-5.0,-999.0,no,yes,no,300234063252990,BD2GHI,AOML,UNKNOWN,North
2018-08-14T06:00:00Z,1534226400,2018,6,0,226.25,226.25,51.534,-44.698,-999.00,-5.0,-999.0,no,yes,no,300234063252990,BD2GHI,AOML,UNKNOWN,North
2018-08-14T07:59:31Z,1534233571,2018,8,0,226.333,226.333,51.543,-44.704,-999.00,-5.0,-999.0,no,yes,no,300234063252990,BD2GHI,AOML,UNKNOWN,North
2018-08-14T09:00:00Z,1534237200,2018,9,0,226.375,226.375,51.549,-44.705,-999.00,-5.0,-999.0,no,yes,no,300234063252990,BD2GHI,AOML,UNKNOWN,North
2018-08-14T10:00:28Z,1534240829,2018,10,0,226.417,226.417,51.555,-44.705,-999.00,-5.0,-999.0,no,yes,no,300234063252990,BD2GHI,AOML,UNKNOWN,North
2018-08-14T10:59:31Z,1534244371,2018,11,0,226.458,226.458,51.56,-44.702,-999.00,-5.0,-999.0,no,yes,no,300234063252990,BD2GHI,AOML,UNKNOWN,North
2018-08-14T12:00:00Z,1534248000,2018,12,0,226.5,226.5,51.563,-44.696,-999.00,-5.0,-999.0,no,yes,no,300234063252990,BD2GHI,AOML,UNKNOWN,North
2018-08-14T13:03:21Z,1534251802,2018,13,3,226.544,226.544,51.564,-44.687,-999.00,-5.0,-999.0,no,yes,no,300234063252990,BD2GHI,AOML,UNKNOWN,North
2018-08-14T13:59:31Z,1534255171,2018,14,0,226.583,226.583,51.564,-44.685,-999.00,-5.0,-999.0,no,yes,no,300234063252990,BD2GHI,AOML,UNKNOWN,North
2018-08-14T15:00:00Z,1534258800,2018,15,0,226.625,226.625,51.565,-44.68,-999.00,-5.0,-999.0,no,yes,no,300234063252990,BD2GHI,AOML,UNKNOWN,North
2018-08-14T16:00:28Z,1534262429,2018,16,0,226.667,226.667,51.565,-44.674,-999.00,-5.0,-999.0,no,yes,no,300234063252990,BD2GHI,AOML,UNKNOWN,North
2018-08-14T16:59:31Z,1534265971,2018,17,0,226.708,226.708,51.566,-44.671,-999.00,-5.0,-999.0,no,yes,no,300234063252990,BD2GHI,AOML,UNKNOWN,North
2018-08-14T18:01:26Z,1534269686,2018,18,1,226.751,226.751,51.566,-44.673,-999.00,-5.0,-999.0,no,yes,no,300234063252990,BD2GHI,AOML,UNKNOWN,North
2018-08-14T19:00:28Z,1534273229,2018,19,0,226.792,226.792,51.567,-44.676,-999.00,-5.0,-999.0,no,yes,no,300234063252990,BD2GHI,AOML,UNKNOWN,North
2018-08-14T19:59:31Z,1534276771,2018,20,0,226.833,226.833,51.57,-44.679,-999.00,-5.0,-999.0,no,yes,no,300234063252990,BD2GHI,AOML,UNKNOWN,North
2018-08-14T21:04:19Z,1534280659,2018,21,4,226.878,226.878,51.576,-44.682,-999.00,-5.0,-999.0,no,yes,no,300234063252990,BD2GHI,AOML,UNKNOWN,North
2018-08-14T22:00:28Z,1534284029,2018,22,0,226.917,226.917,51.581,-44.683,-999.00,-5.0,-999.0,no,yes,no,300234063252990,BD2GHI,AOML,UNKNOWN,North
2018-08-14T22:59:31Z,1534287571,2018,23,0,226.958,226.958,51.585,-44.685,-999.00,-5.0,-999.0,no,yes,no,300234063252990,BD2GHI,AOML,UNKNOWN,North
2018-08-15T00:00:00Z,1534291200,2018,0,0,227.0,227.0,51.589,-44.683,-999.00,-5.0,-999.0,no,yes,no,300234063252990,BD2GHI,AOML,UNKNOWN,North
2018-08-15T01:00:28Z,1534294829,2018,1,0,227.042,227.042,51.593,-44.683,-999.00,-5.0,-999.0,no,yes,no,300234063252990,BD2GHI,AOML,UNKNOWN,North
2018-08-15T02:00:57Z,1534298458,2018,2,1,227.084,227.084,51.597,-44.678,-999.00,-5.0,-999.0,no,yes,no,300234063252990,BD2GHI,AOML,UNKNOWN,North
2018-08-15T03:00:00Z,1534302000,2018,3,0,227.125,227.125,51.6,-44.676,-999.00,-5.0,-999.0,no,yes,no,300234063252990,BD2GHI,AOML,UNKNOWN,North
2018-08-15T04:00:28Z,1534305629,2018,4,0,227.167,227.167,51.602,-44.669,-999.00,-5.0,-999.0,no,yes,no,300234063252990,BD2GHI,AOML,UNKNOWN,North
2018-08-15T04:59:31Z,1534309171,2018,5,0,227.208,227.208,51.602,-44.665,-999.00,-5.0,-999.0,no,yes,no,300234063252990,BD2GHI,AOML,UNKNOWN,North
2018-08-15T06:00:00Z,1534312800,2018,6,0,227.25,227.25,51.603,-44.659,-999.00,-5.0,-999.0,no,yes,no,300234063252990,BD2GHI,AOML,UNKNOWN,North
2018-08-15T07:00:28Z,1534316429,2018,7,0,227.292,227.292,51.603,-44.656,-999.00,-5.0,-999.0,no,yes,no,300234063252990,BD2GHI,AOML,UNKNOWN,North
2018-08-15T07:59:31Z,1534319971,2018,8,0,227.333,227.333,51.605,-44.657,-999.00,-5.0,-999.0,no,yes,no,300234063252990,BD2GHI,AOML,UNKNOWN,North
2018-08-15T09:00:00Z,1534323600,2018,9,0,227.375,227.375,51.608,-44.661,-999.00,-5.0,-999.0,no,yes,no,300234063252990,BD2GHI,AOML,UNKNOWN,North
2018-08-15T10:01:55Z,1534327315,2018,10,2,227.418,227.418,51.611,-44.666,-999.00,-5.0,-999.0,no,yes,no,300234063252990,BD2GHI,AOML,UNKNOWN,North
2018-08-15T10:59:31Z,1534330771,2018,11,0,227.458,227.458,51.614,-44.671,-999.00,-5.0,-999.0,no,yes,no,300234063252990,BD2GHI,AOML,UNKNOWN,North
2018-08-15T12:00:00Z,1534334400,2018,12,0,227.5,227.5,51.618,-44.677,-999.00,-5.0,-999.0,no,yes,no,300234063252990,BD2GHI,AOML,UNKNOWN,North
2018-08-15T13:00:28Z,1534338029,2018,13,0,227.542,227.542,51.624,-44.68,-999.00,-5.0,-999.0,no,yes,no,300234063252990,BD2GHI,AOML,UNKNOWN,North
2018-08-15T13:59:31Z,1534341571,2018,14,0,227.583,227.583,51.63,-44.682,-999.00,-5.0,-999.0,no,yes,no,300234063252990,BD2GHI,AOML,UNKNOWN,North
2018-08-15T15:00:00Z,1534345200,2018,15,0,227.625,227.625,51.633,-44.68,-999.00,-5.0,-999.0,no,yes,no,300234063252990,BD2GHI,AOML,UNKNOWN,North
2018-08-15T16:01:55Z,1534348915,2018,16,2,227.668,227.668,51.642,-44.676,-999.00,-5.0,-999.0,no,yes,no,300234063252990,BD2GHI,AOML,UNKNOWN,North
2018-08-15T16:59:31Z,1534352371,2018,17,0,227.708,227.708,51.649,-44.671,-999.00,-5.0,-999.0,no,yes,no,300234063252990,BD2GHI,AOML,UNKNOWN,North
2018-08-15T18:00:00Z,1534356000,2018,18,0,227.75,227.75,51.654,-44.664,-999.00,-5.0,-999.0,no,yes,no,300234063252990,BD2GHI,AOML,UNKNOWN,North
2018-08-15T19:00:28Z,1534359629,2018,19,0,227.792,227.792,51.655,-44.657,-999.00,-5.0,-999.0,no,yes,no,300234063252990,BD2GHI,AOML,UNKNOWN,North
2018-08-15T19:59:31Z,1534363171,2018,20,0,227.833,227.833,51.656,-44.65,-999.00,-5.0,-999.0,no,yes,no,300234063252990,BD2GHI,AOML,UNKNOWN,North
2018-08-15T21:00:00Z,1534366800,2018,21,0,227.875,227.875,51.654,-44.647,-999.00,-5.0,-999.0,no,yes,no,300234063252990,BD2GHI,AOML,UNKNOWN,North
2018-08-15T22:00:28Z,1534370429,2018,22,0,227.917,227.917,51.651,-44.648,-999.00,-5.0,-999.0,no,yes,no,300234063252990,BD2GHI,AOML,UNKNOWN,North
2018-08-15T22:59:31Z,1534373971,2018,23,0,227.958,227.958,51.65,-44.648,-999.00,-5.0,-999.0,no,yes,no,300234063252990,BD2GHI,AOML,UNKNOWN,North
2018-08-16T00:00:00Z,1534377600,2018,0,0,228.0,228.0,51.648,-44.659,-999.00,-5.0,-999.0,no,yes,no,300234063252990,BD2GHI,AOML,UNKNOWN,North
2018-08-16T01:00:28Z,1534381229,2018,1,0,228.042,228.042,51.65,-44.668,-999.00,-5.0,-999.0,no,yes,no,300234063252990,BD2GHI,AOML,UNKNOWN,North
2018-08-16T02:03:50Z,1534385030,2018,2,4,228.086,228.086,51.655,-44.676,-999.00,-5.0,-999.0,no,yes,no,300234063252990,BD2GHI,AOML,UNKNOWN,North
2018-08-16T03:01:26Z,1534388486,2018,3,1,228.126,228.126,51.662,-44.68,-999.00,-5.0,-999.0,no,yes,no,300234063252990,BD2GHI,AOML,UNKNOWN,North
2018-08-16T04:00:28Z,1534392029,2018,4,0,228.167,228.167,51.668,-44.679,-999.00,-5.0,-999.0,no,yes,no,300234063252990,BD2GHI,AOML,UNKNOWN,North
2018-08-16T04:59:31Z,1534395571,2018,5,0,228.208,228.208,51.673,-44.678,-999.00,-5.0,-999.0,no,yes,no,300234063252990,BD2GHI,AOML,UNKNOWN,North
2018-08-16T06:00:00Z,1534399200,2018,6,0,228.25,228.25,51.678,-44.672,-999.00,-5.0,-999.0,no,yes,no,300234063252990,BD2GHI,AOML,UNKNOWN,North
2018-08-16T07:00:28Z,1534402829,2018,7,0,228.292,228.292,-90.0,-180.0,-999.00,-5.0,-999.0,no,yes,no,300234063252990,BD2GHI,AOML,UNKNOWN,North
2018-08-16T07:59:31Z,1534406371,2018,8,0,228.333,228.333,-90.0,-180.0,-999.00,-5.0,-999.0,no,yes,no,300234063252990,BD2GHI,AOML,UNKNOWN,North
2018-08-16T09:00:00Z,1534410000,2018,9,0,228.375,228.375,51.685,-44.647,-999.00,-5.0,-999.0,no,yes,no,300234063252990,BD2GHI,AOML,UNKNOWN,North
2018-08-16T10:00:28Z,1534413629,2018,10,0,228.417,228.417,-90.0,-180.0,-999.00,-5.0,-999.0,no,yes,no,300234063252990,BD2GHI,AOML,UNKNOWN,North
2018-08-16T10:59:31Z,1534417171,2018,11,0,228.458,228.458,51.683,-44.64,-999.00,-5.0,-999.0,no,yes,no,300234063252990,BD2GHI,AOML,UNKNOWN,North
2018-08-16T12:00:00Z,1534420800,2018,12,0,228.5,228.5,51.681,-44.641,-999.00,-5.0,-999.0,no,yes,no,300234063252990,BD2GHI,AOML,UNKNOWN,North
2018-08-16T13:00:28Z,1534424429,2018,13,0,228.542,228.542,51.677,-44.645,-999.00,-5.0,-999.0,no,yes,no,300234063252990,BD2GHI,AOML,UNKNOWN,North
2018-08-16T14:00:57Z,1534428058,2018,14,1,228.584,228.584,51.675,-44.652,-999.00,-5.0,-999.0,no,yes,no,300234063252990,BD2GHI,AOML,UNKNOWN,North
2018-08-16T15:00:00Z,1534431600,2018,15,0,228.625,228.625,51.673,-44.662,-999.00,-5.0,-999.0,no,yes,no,300234063252990,BD2GHI,AOML,UNKNOWN,North
2018-08-16T16:00:28Z,1534435229,2018,16,0,228.667,228.667,51.674,-44.674,-999.00,-5.0,-999.0,no,yes,no,300234063252990,BD2GHI,AOML,UNKNOWN,North
2018-08-16T16:59:31Z,1534438771,2018,17,0,228.708,228.708,51.678,-44.686,-999.00,-5.0,-999.0,no,yes,no,300234063252990,BD2GHI,AOML,UNKNOWN,North
2018-08-16T18:01:26Z,1534442486,2018,18,2,228.751,228.751,51.682,-44.697,-999.00,-5.0,-999.0,no,yes,no,300234063252990,BD2GHI,AOML,UNKNOWN,North
2018-08-16T19:00:28Z,1534446029,2018,19,0,228.792,228.792,51.69,-44.708,-999.00,-5.0,-999.0,no,yes,no,300234063252990,BD2GHI,AOML,UNKNOWN,North
2018-08-16T19:59:31Z,1534449571,2018,20,0,228.833,228.833,51.699,-44.716,-999.00,-5.0,-999.0,no,yes,no,300234063252990,BD2GHI,AOML,UNKNOWN,North
2018-08-16T21:00:00Z,1534453200,2018,21,0,228.875,228.875,51.707,-44.72,-999.00,-5.0,-999.0,no,yes,no,300234063252990,BD2GHI,AOML,UNKNOWN,North
2018-08-16T22:00:28Z,1534456829,2018,22,0,228.917,228.917,51.713,-44.723,-999.00,-5.0,-999.0,no,yes,no,300234063252990,BD2GHI,AOML,UNKNOWN,North
2018-08-16T22:59:31Z,1534460371,2018,23,0,228.958,228.958,51.722,-44.723,-999.00,-5.0,-999.0,no,yes,no,300234063252990,BD2GHI,AOML,UNKNOWN,North
2018-08-17T00:00:00Z,1534464000,2018,0,0,229.0,229.0,51.727,-44.724,-999.00,-5.0,-999.0,no,yes,no,300234063252990,BD2GHI,AOML,UNKNOWN,North
2018-08-17T01:03:21Z,1534467802,2018,1,4,229.044,229.044,51.729,-44.725,-999.00,-5.0,-999.0,no,yes,no,300234063252990,BD2GHI,AOML,UNKNOWN,North
2018-08-17T01:59:31Z,1534471171,2018,2,0,229.083,229.083,51.733,-44.724,-999.00,-5.0,-999.0,no,yes,no,300234063252990,BD2GHI,AOML,UNKNOWN,North
2018-08-17T04:00:28Z,1534478429,2018,4,1,229.167,229.167,51.729,-44.74,-999.00,-5.0,-999.0,no,yes,no,300234063252990,BD2GHI,AOML,UNKNOWN,North
2018-08-17T05:00:57Z,1534482058,2018,5,1,229.209,229.209,51.729,-44.746,-999.00,-5.0,-999.0,no,yes,no,300234063252990,BD2GHI,AOML,UNKNOWN,North
2018-08-17T06:00:00Z,1534485600,2018,6,0,229.25,229.25,51.729,-44.759,-999.00,-5.0,-999.0,no,yes,no,300234063252990,BD2GHI,AOML,UNKNOWN,North
2018-08-17T07:03:21Z,1534489402,2018,7,3,229.294,229.294,51.73,-44.776,-999.00,-5.0,-999.0,no,yes,no,300234063252990,BD2GHI,AOML,UNKNOWN,North
2018-08-17T07:59:31Z,1534492771,2018,8,0,229.333,229.333,51.733,-44.79,-999.00,-5.0,-999.0,no,yes,no,300234063252990,BD2GHI,AOML,UNKNOWN,North
2018-08-17T09:00:00Z,1534496400,2018,9,0,229.375,229.375,51.738,-44.808,-999.00,-5.0,-999.0,no,yes,no,300234063252990,BD2GHI,AOML,UNKNOWN,North
2018-08-17T10:00:28Z,1534500029,2018,10,0,229.417,229.417,51.744,-44.825,-999.00,-5.0,-999.0,no,yes,no,300234063252990,BD2GHI,AOML,UNKNOWN,North
2018-08-17T10:59:31Z,1534503571,2018,11,0,229.458,229.458,51.751,-44.842,-999.00,-5.0,-999.0,no,yes,no,300234063252990,BD2GHI,AOML,UNKNOWN,North
2018-08-17T12:00:00Z,1534507200,2018,12,0,229.5,229.5,51.758,-44.858,-999.00,-5.0,-999.0,no,yes,no,300234063252990,BD2GHI,AOML,UNKNOWN,North
2018-08-17T13:00:28Z,1534510829,2018,13,1,229.542,229.542,51.765,-44.871,-999.00,-5.0,-999.0,no,yes,no,300234063252990,BD2GHI,AOML,UNKNOWN,North
2018-08-17T13:59:31Z,1534514371,2018,14,0,229.583,229.583,-90.0,-180.0,-999.00,-5.0,-999.0,no,yes,no,300234063252990,BD2GHI,AOML,UNKNOWN,North
2018-08-17T15:00:00Z,1534518000,2018,15,0,229.625,229.625,51.78,-44.889,-999.00,-5.0,-999.0,no,yes,no,300234063252990,BD2GHI,AOML,UNKNOWN,North
2018-08-17T16:00:28Z,1534521629,2018,16,0,229.667,229.667,51.783,-44.893,-999.00,-5.0,-999.0,no,yes,no,300234063252990,BD2GHI,AOML,UNKNOWN,North
2018-08-17T18:00:00Z,1534528800,2018,18,0,229.75,229.75,51.783,-44.904,-999.00,-5.0,-999.0,no,yes,no,300234063252990,BD2GHI,AOML,UNKNOWN,North
2018-08-17T19:00:28Z,1534532429,2018,19,0,229.792,229.792,51.781,-44.914,-999.00,-5.0,-999.0,no,yes,no,300234063252990,BD2GHI,AOML,UNKNOWN,North
2018-08-17T19:59:31Z,1534535971,2018,20,0,229.833,229.833,51.777,-44.924,-999.00,-5.0,-999.0,no,yes,no,300234063252990,BD2GHI,AOML,UNKNOWN,North
2018-08-17T21:00:00Z,1534539600,2018,21,0,229.875,229.875,51.775,-44.94,-999.00,-5.0,-999.0,no,yes,no,300234063252990,BD2GHI,AOML,UNKNOWN,North
2018-08-17T22:00:28Z,1534543229,2018,22,0,229.917,229.917,51.773,-44.959,-999.00,-5.0,-999.0,no,yes,no,300234063252990,BD2GHI,AOML,UNKNOWN,North
2018-08-17T22:59:31Z,1534546771,2018,23,0,229.958,229.958,51.776,-44.979,-999.00,-5.0,-999.0,no,yes,no,300234063252990,BD2GHI,AOML,UNKNOWN,North
2018-08-18T00:01:26Z,1534550486,2018,0,1,230.001,230.001,51.78,-44.997,-999.00,-5.0,-999.0,no,yes,no,300234063252990,BD2GHI,AOML,UNKNOWN,North
2018-08-18T01:00:28Z,1534554029,2018,1,0,230.042,230.042,-90.0,-180.0,-999.00,-5.0,-999.0,no,yes,no,300234063252990,BD2GHI,AOML,UNKNOWN,North
2018-08-18T02:03:50Z,1534557830,2018,2,4,230.086,230.086,51.786,-45.03,-999.00,-5.0,-999.0,no,yes,no,300234063252990,BD2GHI,AOML,UNKNOWN,North
2018-08-18T03:00:00Z,1534561200,2018,3,0,230.125,230.125,51.79,-45.041,-999.00,-5.0,-999.0,no,yes,no,300234063252990,BD2GHI,AOML,UNKNOWN,North
2018-08-18T04:00:28Z,1534564829,2018,4,0,230.167,230.167,51.793,-45.049,-999.00,-5.0,-999.0,no,yes,no,300234063252990,BD2GHI,AOML,UNKNOWN,North
2018-08-18T04:59:31Z,1534568371,2018,5,0,230.208,230.208,51.794,-45.056,-999.00,-5.0,-999.0,no,yes,no,300234063252990,BD2GHI,AOML,UNKNOWN,North
2018-08-18T06:00:00Z,1534572000,2018,6,0,230.25,230.25,51.795,-45.061,-999.00,-5.0,-999.0,no,yes,no,300234063252990,BD2GHI,AOML,UNKNOWN,North
2018-08-18T07:00:28Z,1534575629,2018,7,0,230.292,230.292,51.793,-45.065,-999.00,-5.0,-999.0,no,yes,no,300234063252990,BD2GHI,AOML,UNKNOWN,North
2018-08-18T07:59:31Z,1534579171,2018,8,0,230.333,230.333,51.789,-45.07,-999.00,-5.0,-999.0,no,yes,no,300234063252990,BD2GHI,AOML,UNKNOWN,North
2018-08-18T09:00:00Z,1534582800,2018,9,0,230.375,230.375,51.786,-45.078,-999.00,-5.0,-999.0,no,yes,no,300234063252990,BD2GHI,AOML,UNKNOWN,North
2018-08-18T10:00:28Z,1534586429,2018,10,0,230.417,230.417,51.781,-45.09,-999.00,-5.0,-999.0,no,yes,no,300234063252990,BD2GHI,AOML,UNKNOWN,North